Location: Dürabuch
(48.2640°N, 11.2185°E)
Time: 19:05:20
(UTC+00:00)

IRAS Rocket - Pass Details

Date: 23 May 2024
Orbit: 846 x 877 km, 100.1° (Epoch: 23 June)

Event Time Altitude Azimuth Distance (km) Brightness Sun altitude
Rises 02:14:48 0° 16° (NNE) 3,438 8.6 -9.9°
Reaches altitude 10° 02:17:11 10° 16° (NNE) 2,494 7.8 -9.6°
Maximum altitude 02:22:43 87° 288° (WNW) 857 4.2 -9.0°
Drops below altitude 10° 02:28:11 10° 200° (SSW) 2,464 6.1 -8.3°
Enters shadow 02:28:52 - 200° (SSW) 2,729 6.3 -8.3°
